Tracking 17844 objects as of 28-August-2016
HD Live streaming from Space Station
objects crossing your sky now

ATLAS CENTAUR R/B

Track ATLAS CENTAUR R/B now!


NORAD ID: 10976
Int'l Code: 1978-068B
Perigee: 647.2 km
Apogee: 36,209.1 km
Inclination: 21.7 °
Period: 647.8 minutes
Semi major axis: 24799 km
RCS: 16.8333 m2 (large)
Launch date: June 29, 1978
Source: United States (US)
Launch site: AIR FORCE EASTERN TEST RANGE (AFETR)

Note: This is a ROCKET BODY
Your satellite tracking list
Your tracking list is empty





NASA's NSSDC Master Catalog

Two Line Element Set (TLE):
1 10976U 78068B   16240.58090743 -.00000107  00000-0  54281-3 0  9993
2 10976  21.6878 304.4951 7169969  77.3340 236.7831  2.22303708309722
Source of the keplerian elements: AFSPC

N2YO: 511